Accueil
METAR-TAF:

METAR-TAF

Aéroports :

Majuro, Îles Marshall

NWS Office

latitude: 07-05N, longitude: 171-12E, altitude: 4 m

Observation

Le bulletin a été fait il y a 32 minutes, à 10:51 UTC
Vent 9 kt de est
Température 28°C
Humidité 79%
Pression 1009 hPa
Visibilité: 24.1 km
Quelques nuages à une hauteur de 1500 ft
Nuages épars à une hauteur de 5000 ft
Nuages fragmentés à une hauteur de 12000 ft
Ciel couvert à une hauteur de 30000 ft

METAR: PKMR 211051Z 08009KT 15SM FEW015 SCT050 BKN120 OVC300 28/24 A2980 RMK SLP091 T02840244

Heure: 23:23 (11:23 UTC)


TAF: absent

Observations et prévisions météorologiques de plus de 4000 aéroports (messages METAR et TAF).

Les stations disponibles sont représentées par des disques jaunes et rouges sur la carte.

Passer la souris dessus pour voir le nom de la station.

Cliquer dessus pour voir les observations et prévisions météorologiques.

Pour changer de carte: cliquez sur les boutons verts avec une croix noire pour zoomer, sur le bouton vert avec un tiret pour effectuer un zoom arrière, ou sur les flèches vertes pour les cartes adjacentes.


METAR-TAF: